GW0280 Weather Reports


time (UTC)temp
C
wind
direction
speed
KPH
gust
KPH
rain 1hr
cm
rain 24hr
cm
rain mn
cm
humidity
%
barometer
mb
20260504081545 8 0 0.0 4.8 0.00 0.00 0.00 85 1015.8
20260504050105 3 0 0.0 0.0 0.00 0.00 0.00 85 1015.8
20260504044539 3 0 0.0 0.0 0.00 0.00 0.00 84 1015.9
20260504043045 3 0 0.0 0.0 0.00 0.00 0.00 82 1015.8
20260504041543 4 0 0.0 0.0 0.00 0.00 0.00 81 1015.7
20260504040044 4 0 0.0 0.0 0.00 0.00 0.00 81 1015.5
20260504034549 4 0 0.0 0.0 0.00 0.00 0.00 79 1015.5
20260504033044 5 0 0.0 1.6 0.00 0.00 0.00 79 1015.4
20260504031556 4 0 0.0 1.6 0.00 0.00 0.00 79 1015.3
20260504030045 5 0 0.0 0.0 0.00 0.00 0.00 79 1015.3
20260504024544 5 0 0.0 0.0 0.00 0.00 0.00 79 1015.2
20260504023043 5 0 0.0 0.0 0.00 0.00 0.00 78 1015.3
20260504021541 5 0 0.0 1.6 0.00 0.00 0.00 77 1015.2
20260504020041 5 0 0.0 0.0 0.00 0.00 0.00 76 1015.2
20260504014546 6 0 0.0 0.0 0.00 0.00 0.00 74 1015.2
20260504013046 6 0 0.0 0.0 0.00 0.00 0.00 74 1015.1
20260504011546 7 0 0.0 0.0 0.00 0.00 0.00 70 1015.1
20260504010046 7 0 0.0 0.0 0.00 0.00 0.00 67 1015.0
20260504004542 8 0 0.0 0.0 0.00 0.00 0.00 64 1014.7
20260504003045 10 0 0.0 0.0 0.00 0.00 0.00 60 1014.5
20260504001552 11 0 0.0 0.0 0.00 0.00 0.00 55 1014.5
20260504000045 12 0 0.0 0.0 0.00 0.00 0.00 50 1014.2
20260503234544 13 0 0.0 3.2 0.00 0.00 0.00 42 1014.1
20260503233042 14 0 0.0 8.0 0.00 0.00 0.00 40 1014.0
20260503231547 15 207 0.0 6.4 0.00 0.00 0.00 38 1014.1
20260503230039 15 182 0.0 17.7 0.00 0.00 0.00 36 1014.1
20260503224539 15 229 3.2 12.9 0.00 0.00 0.00 36 1014.0
20260503223045 15 325 3.2 12.9 0.00 0.00 0.00 36 1014.0
20260503221540 15 178 4.8 17.7 0.00 0.00 0.00 36 1014.2
20260503220043 15 0 4.8 19.3 0.00 0.00 0.00 35 1014.1
20260503214548 15 360 6.4 22.5 0.00 0.00 0.00 37 1014.2
20260503213101 15 283 4.8 12.9 0.00 0.00 0.00 37 1014.1
20260503211612 15 327 4.8 17.7 0.00 0.00 0.00 37 1014.0
20260503210043 15 219 4.8 25.7 0.00 0.00 0.00 39 1014.1
20260503204559 15 331 4.8 27.4 0.00 0.00 0.00 38 1014.1
20260503203042 15 139 9.7 35.4 0.00 0.00 0.00 39 1014.3
20260503201543 15 50 3.2 20.9 0.00 0.00 0.00 38 1014.3
20260503200039 15 199 9.7 24.1 0.00 0.00 0.00 39 1014.4
20260503194543 14 220 9.7 27.4 0.00 0.00 0.00 38 1015.0
20260503193044 14 346 6.4 24.1 0.00 0.00 0.00 39 1014.9
20260503191556 14 360 6.4 19.3 0.00 0.00 0.00 41 1014.9
20260503190044 14 338 6.4 24.1 0.00 0.00 0.00 40 1014.9
20260503184551 14 268 4.8 30.6 0.00 0.00 0.00 39 1015.1
20260503183044 13 198 3.2 27.4 0.00 0.00 0.00 43 1015.0
20260503181544 13 292 4.8 16.1 0.00 0.00 0.00 40 1015.4
20260503180043 13 350 4.8 22.5 0.00 0.00 0.00 41 1015.0
20260503174555 13 139 1.6 22.5 0.00 0.00 0.00 42 1015.4
20260503173041 13 250 4.8 19.3 0.00 0.00 0.00 45 1015.6
20260503171539 12 0 3.2 24.1 0.00 0.00 0.00 44 1015.6